Погода в Ковягах

Украина / Харьковская область     49°54′13″N   35°33′53″E
темп.,
°C
ветер,
м/с
пор.,
м/с
влажн.,
%
обл.,
%
осадки,
мм/ч
давл.,
гПа
погр.,
м
13 апреля, вт
вт1300:00+12ююв248398 0.0 1022109
03:00+11ююв2285100 0.0 102257
06:00+10вюв2388100 0.0 1021111
09:00+11юв3787100 0.0 1022384
12:00+14ююв367081 0.0 1021791
15:00+14ю4468100 0.2 1020834
18:00+12ююз3474100 0.1 1020327
21:00+11ю3680100 0.1 1021306
14 апреля, ср
ср1400:00+10ююв2380100 0.0 1020100
03:00+10юв238098 0.0 101987
06:00+10юв2482100 0.0 1018135
09:00+11ю3476100 0.0 1018417
12:00+14ююв346190 0.3 10171221
15:00+15ююв3454100 0.6 10161195
18:00+15ю3549100 0.0 1015255
21:00+13ююв2365100 0.0 101689
15 апреля, чт
чт1500:00+12ююв1169100 0.0 101521
03:00+10ююз3373100 0.0 101572
06:00+8ю2273100 0.0 101429
09:00+12ююв456141 0.0 1014516
12:00+12юв6962100 0.1 10141394
15:00+14ю575759 0.4 10131402
18:00+11ю2778100 0.3 1012326
21:00+10юв3685100 1.7 1013252
16 апреля, пт
пт1600:00+10ю2383100 0.8 1013141
03:00+8ю368791 0.8 1013278
06:00+7ююв48785 0.0 1013252
09:00+8ю56705 0.0 1014751
12:00+11ю565176 0.0 10151670
15:00+10ююз5655100 0.0 1016938
18:00+10ююв34537 0.0 1016799
21:00+8ююв226356 0.0 101733
17 апреля, сб
сб1700:00+7ююз226993 0.0 101727
03:00+7ссз117378 0.0 101810
06:00+7сз1173100 0.0 101811
09:00+8зсз1269100 0.0 1019367
12:00+10зсз4559100 0.1 10191366
15:00+12зсз3550100 0.2 10191638
18:00+10ссв4367100 0.1 1021498
21:00+7всв4681100 0.1 1022214